sat.trackr.live / text

‹ back to catalog

STARLINK-30579

NORAD 58061 · 2023-158L

PAYLOAD ACTIVE UNKNOWN

§ Identity

Operator
Country
US
Launch date
2023-10-13
Launch site
AFETR
Launch vehicle
Mass (kg)
RCS (m²)

Purposes: comms

External: N2YO · Heavens-Above · Gunter

§ Orbital elements

Epoch: 2026-05-25T02:42:20.225376Z

Period
94.27 min
Inclination
43.0044°
Eccentricity
0.0001640
Mean motion
15.27585515 rev/d
Perigee alt
481.9 km
Apogee alt
484.2 km
Semi-major
6,861.2 km
B*
4.3646e-5
RAAN
289.6503°
Arg perigee
264.9281°
Mean anomaly
95.1384°
Rev number
14,555

§ Raw data

STARLINK-305791 58061U 23158L   26145.11273409  .00000939  00000+0  43646-4 0  99912 58061  43.0044 289.6503 0001640 264.9281  95.1384 15.27585515145557

JSON: /api/v1/satellites/58061 · /tle

For live sub-satellite position, see the globe view (requires WebGL).

§ Visibility from observer

Set your observer location to see the next 7 days of passes ≥ 10°. The values pass through the URL so the page stays shareable.

No JS? Fill the form by hand. The geolocation button needs JavaScript.